FW0850 Weather Reports


Display with metric or nautical units.
time (UTC)temp
F
wind
direction
speed
MPH
gust
MPH
rain 1hr
in
rain 24hr
in
rain mn
in
humidity
%
barometer
mb
20181015153002 36 257 7.0 17.0 0.00 0.00 0.00 68 1019.9
20181015151653 35 267 6.0 16.0 0.00 0.00 0.00 69 1019.8
20181015144649 35 245 5.0 16.0 0.00 0.00 0.00 70 1019.9
20181015143131 35 178 6.0 12.0 0.00 0.00 0.00 71 1019.9
20181015141633 34 304 0.0 9.0 0.00 0.00 0.00 75 1019.9
20181015140121 33 199 1.0 9.0 0.00 0.00 0.00 77 1019.6
20181015134554 33 278 3.0 7.0 0.00 0.00 0.00 78 1019.6
20181015133109 32 198 3.0 5.0 0.00 0.00 0.00 79 1019.2
20181015131608 31 219 2.0 8.0 0.00 0.00 0.00 80 1019.2
20181015130058 31 210 2.0 6.0 0.00 0.00 0.00 80 1019.2
20181015124632 31 285 1.0 5.0 0.00 0.00 0.00 81 1019.2
20181015123052 31 236 1.0 6.0 0.00 0.00 0.00 82 1019.2
20181015121557 31 155 0.0 6.0 0.00 0.00 0.00 81 1019.0
20181015120104 31 278 3.0 11.0 0.00 0.00 0.00 82 1019.0
20181015114540 31 203 2.0 8.0 0.00 0.00 0.00 83 1019.1
20181015113134 31 238 1.0 5.0 0.00 0.00 0.00 84 1018.8
20181015111544 31 234 1.0 6.0 0.00 0.00 0.00 86 1018.8
20181015110049 31 228 2.0 7.0 0.00 0.00 0.00 86 1018.8
20181015104617 31 257 1.0 5.0 0.00 0.00 0.00 86 1018.8
20181015103050 31 230 1.0 6.0 0.00 0.00 0.00 84 1018.7
20181015101558 31 281 2.0 9.0 0.00 0.00 0.00 81 1018.7
20181015100053 32 287 2.0 6.0 0.00 0.00 0.00 79 1018.4
20181015094606 32 229 1.0 5.0 0.00 0.00 0.00 78 1018.6
20181015093046 32 204 1.0 7.0 0.00 0.00 0.00 77 1018.7
20181015091552 32 205 0.0 4.0 0.00 0.00 0.00 76 1018.6
20181015090030 32 228 0.0 1.0 0.00 0.00 0.00 76 1018.6
20181015084543 32 228 0.0 7.0 0.00 0.00 0.00 74 1018.8
20181015083021 32 233 0.0 5.0 0.00 0.00 0.00 73 1018.8
20181015081556 33 252 1.0 6.0 0.00 0.00 0.00 72 1018.9
20181015080015 33 248 2.0 7.0 0.00 0.00 0.00 71 1019.2
20181015074511 33 231 2.0 6.0 0.00 0.00 0.00 70 1019.0
20181015073016 33 266 2.0 8.0 0.00 0.00 0.00 70 1019.2
20181015071519 33 273 2.0 6.0 0.00 0.00 0.00 70 1019.2
20181015070006 33 249 0.0 8.0 0.00 0.00 0.00 71 1019.2
20181015064505 34 270 2.0 6.0 0.00 0.00 0.00 68 1019.4
20181015063233 34 246 0.0 3.0 0.00 0.00 0.00 68 1019.3
20181015061743 34 223 0.0 5.0 0.00 0.00 0.00 67 1019.3
20181015060310 34 244 2.0 5.0 0.00 0.00 0.00 67 1019.3
20181015054658 34 268 0.0 3.0 0.00 0.00 0.00 68 1019.4
20181015053347 34 206 0.0 6.0 0.00 0.00 0.00 68 1019.4
20181015051634 34 226 0.0 3.0 0.00 0.00 0.00 70 1019.5
20181015050110 35 231 0.0 3.0 0.00 0.00 0.00 70 1019.6
20181015044619 35 294 1.0 4.0 0.00 0.00 0.00 69 1019.6
20181015043116 35 207 0.0 3.0 0.00 0.00 0.00 69 1019.7
20181015041740 35 194 1.0 4.0 0.00 0.00 0.00 68 1019.7
20181015040120 35 214 0.0 3.0 0.00 0.00 0.00 66 1019.8
20181015034705 35 198 0.0 4.0 0.00 0.00 0.00 66 1019.9
20181015033059 35 264 0.0 3.0 0.00 0.00 0.00 65 1020.1
20181015031801 35 245 1.0 4.0 0.00 0.00 0.00 63 1020.1
20181015030129 35 248 0.0 2.0 0.00 0.00 0.00 63 1020.2
20181015024554 35 174 0.0 2.0 0.00 0.00 0.00 62 1020.3
20181015023131 36 281 1.0 6.0 0.00 0.00 0.00 61 1020.1
20181015021616 36 278 2.0 6.0 0.00 0.00 0.00 61 1020.3
20181015020102 36 207 0.0 4.0 0.00 0.00 0.00 61 1020.3
20181015014607 36 262 2.0 6.0 0.00 0.00 0.00 61 1020.4
20181015013052 36 256 2.0 4.0 0.00 0.00 0.00 64 1020.3
20181015011602 36 285 0.0 4.0 0.00 0.00 0.00 65 1020.2
20181015010140 36 208 1.0 3.0 0.00 0.00 0.00 66 1020.3
20181015004613 36 266 1.0 4.0 0.00 0.00 0.00 66 1020.3
20181015003111 36 237 0.0 6.0 0.00 0.00 0.00 65 1020.3
20181015001558 36 224 0.0 5.0 0.00 0.00 0.00 65 1020.2
20181015000047 36 245 1.0 5.0 0.00 0.00 0.00 65 1019.7
20181014234557 37 243 1.0 6.0 0.00 0.00 0.00 66 1019.7
20181014233119 37 163 1.0 5.0 0.00 0.00 0.00 67 1019.6
20181014231544 37 217 0.0 4.0 0.00 0.00 0.00 68 1019.6
20181014230039 37 253 2.0 4.0 0.00 0.00 0.00 67 1019.8
20181014224542 37 210 2.0 6.0 0.00 0.00 0.00 67 1019.5
20181014223048 37 276 0.0 5.0 0.00 0.00 0.00 67 1019.2
20181014221558 37 143 1.0 4.0 0.00 0.00 0.00 67 1019.2
20181014220102 37 304 0.0 9.0 0.00 0.00 0.00 66 1019.4
20181014214538 38 316 0.0 4.0 0.00 0.00 0.00 66 1019.4
20181014213106 38 200 2.0 5.0 0.00 0.00 0.00 67 1019.4
20181014211536 37 316 0.0 8.0 0.00 0.00 0.00 68 1019.4
20181014210042 37 255 4.0 10.0 0.00 0.00 0.00 68 1019.4
20181014204544 38 267 1.0 8.0 0.00 0.00 0.00 71 1019.3
20181014203038 37 11 2.0 9.0 0.00 0.00 0.00 73 1019.6
20181014201533 36 257 1.0 6.0 0.00 0.00 0.00 76 1019.7
20181014200026 35 153 1.0 8.0 0.00 0.00 0.00 79 1019.7
20181014194539 36 291 1.0 6.0 0.00 0.00 0.00 76 1019.6
20181014193018 36 300 2.0 5.0 0.00 0.00 0.00 75 1019.6
20181014191517 36 202 0.0 6.0 0.00 0.00 0.00 75 1019.6
20181014190048 36 276 0.0 5.0 0.00 0.00 0.00 72 1019.6
20181014184517 36 292 0.0 6.0 0.00 0.00 0.00 72 1019.6
20181014183015 36 301 3.0 8.0 0.00 0.00 0.00 72 1019.6
20181014181516 35 158 1.0 4.0 0.00 0.00 0.00 74 1019.4
20181014180017 35 179 1.0 6.0 0.00 0.00 0.00 75 1019.6
20181014174522 36 329 2.0 10.0 0.00 0.00 0.00 74 1020.0
20181014173012 37 27 2.0 8.0 0.00 0.00 0.00 66 1020.1
20181014171516 37 160 1.0 4.0 0.00 0.00 0.00 61 1019.9
20181014170004 37 217 1.0 5.0 0.00 0.00 0.00 62 1019.7
20181014164503 37 287 1.0 4.0 0.00 0.00 0.00 62 1019.7
20181014163155 37 218 1.0 5.0 0.00 0.00 0.00 61 1019.7
20181014161708 37 252 2.0 4.0 0.00 0.00 0.00 59 1019.5
20181014160204 37 171 0.0 2.0 0.00 0.00 0.00 60 1019.4
20181014154702 36 226 0.0 5.0 0.00 0.00 0.00 60 1019.3
20181014153111 36 258 1.0 4.0 0.00 0.00 0.00 61 1019.2